Time,TemperatureF,DewpointF,PressureIn,WindDirection,WindDirectionDegrees,WindSpeedMPH,WindSpeedGustMPH,Humidity,HourlyPrecipIn,Conditions,Clouds,dailyrainin,SoftwareType,DateUTC
2013-03-08 00:00:00,46.4,44.2,29.84,NNE,22,3.0,3.0,92,0.00,,,0.16,Wunderground v.1.15,2013-03-08 08:00:00,
2013-03-08 00:05:00,46.3,44.1,29.84,NE,44,3.0,3.0,92,0.00,,,0.00,Wunderground v.1.15,2013-03-08 08:05:00,
2013-03-08 00:10:00,46.4,44.2,29.83,NNE,14,3.0,3.0,92,0.00,,,0.00,Wunderground v.1.15,2013-03-08 08:10:00,
2013-03-08 00:15:00,46.3,44.1,29.83,NE,41,3.0,3.0,92,0.00,,,0.01,Wunderground v.1.15,2013-03-08 08:15:00,
2013-03-08 00:20:00,46.4,44.2,29.83,NNE,15,3.0,3.0,92,0.00,,,0.01,Wunderground v.1.15,2013-03-08 08:20:00,
2013-03-08 00:25:00,46.3,44.1,29.83,North,7,3.0,5.0,92,0.00,,,0.01,Wunderground v.1.15,2013-03-08 08:25:00,
2013-03-08 00:30:00,46.3,44.1,29.83,NNE,15,2.0,2.0,92,0.00,,,0.01,Wunderground v.1.15,2013-03-08 08:30:00,
2013-03-08 00:35:00,46.3,44.1,29.83,NNE,15,1.0,4.0,92,0.00,,,0.01,Wunderground v.1.15,2013-03-08 08:35:00,
2013-03-08 00:40:00,46.3,44.1,29.83,NNE,15,1.0,1.0,92,0.00,,,0.01,Wunderground v.1.15,2013-03-08 08:40:00,
2013-03-08 00:45:00,46.4,44.2,29.83,NNE,15,1.0,2.0,92,0.00,,,0.02,Wunderground v.1.15,2013-03-08 08:45:00,
2013-03-08 00:50:00,46.5,44.3,29.83,WSW,257,1.0,1.0,92,0.00,,,0.02,Wunderground v.1.15,2013-03-08 08:50:00,
2013-03-08 01:00:00,46.4,44.2,29.83,South,189,2.0,3.0,92,0.15,,,0.05,Wunderground v.1.15,2013-03-08 09:00:00,
2013-03-08 01:05:00,46.2,44.0,29.83,West,261,2.0,3.0,92,0.24,,,0.07,Wunderground v.1.15,2013-03-08 09:05:00,
2013-03-08 01:10:00,46.0,43.8,29.83,SW,225,2.0,2.0,92,0.23,,,0.09,Wunderground v.1.15,2013-03-08 09:10:00,
2013-03-08 01:20:00,45.9,43.7,29.83,SW,225,0.0,2.0,92,0.21,,,0.12,Wunderground v.1.15,2013-03-08 09:20:00,
2013-03-08 01:25:00,45.8,43.6,29.83,SW,225,0.0,2.0,92,0.17,,,0.14,Wunderground v.1.15,2013-03-08 09:25:00,
2013-03-08 01:35:00,45.8,43.6,29.83,NW,304,0.0,2.0,92,0.17,,,0.16,Wunderground v.1.15,2013-03-08 09:35:00,
2013-03-08 01:40:00,45.6,43.4,29.82,NW,304,0.0,2.0,92,0.16,,,0.18,Wunderground v.1.15,2013-03-08 09:40:00,
2013-03-08 01:45:00,45.6,43.7,29.83,NW,304,0.0,2.0,93,0.13,,,0.19,Wunderground v.1.15,2013-03-08 09:45:00,
2013-03-08 01:50:00,45.6,43.7,29.83,NW,304,0.0,2.0,93,0.13,,,0.20,Wunderground v.1.15,2013-03-08 09:50:00,
2013-03-08 01:55:00,45.5,43.6,29.83,NW,304,0.0,2.0,93,0.11,,,0.21,Wunderground v.1.15,2013-03-08 09:55:00,
2013-03-08 02:00:00,45.4,43.5,29.83,NW,304,0.0,2.0,93,0.11,,,0.22,Wunderground v.1.15,2013-03-08 10:00:00,
2013-03-08 02:10:00,45.2,43.3,29.83,NW,304,0.0,2.0,93,0.10,,,0.23,Wunderground v.1.15,2013-03-08 10:10:00,
2013-03-08 02:15:00,45.1,43.2,29.83,NW,304,0.0,2.0,93,0.09,,,0.24,Wunderground v.1.15,2013-03-08 10:15:00,
2013-03-08 02:25:00,45.0,43.1,29.83,SW,224,1.0,2.0,93,0.08,,,0.25,Wunderground v.1.15,2013-03-08 10:25:00,
2013-03-08 02:30:00,44.9,43.0,29.83,SW,224,1.0,1.0,93,0.07,,,0.26,Wunderground v.1.15,2013-03-08 10:30:00,
2013-03-08 02:35:00,44.9,43.0,29.82,SW,224,0.0,2.0,93,0.07,,,0.26,Wunderground v.1.15,2013-03-08 10:35:00,
2013-03-08 02:45:00,44.9,43.0,29.81,SW,224,1.0,2.0,93,0.06,,,0.27,Wunderground v.1.15,2013-03-08 10:45:00,
2013-03-08 02:50:00,44.9,43.0,29.81,NE,37,2.0,6.0,93,0.06,,,0.28,Wunderground v.1.15,2013-03-08 10:50:00,
2013-03-08 02:55:00,44.9,43.0,29.80,NNE,30,3.0,6.0,93,0.06,,,0.28,Wunderground v.1.15,2013-03-08 10:55:00,
2013-03-08 03:00:00,44.7,42.8,29.80,NE,40,5.0,5.0,93,0.05,,,0.28,Wunderground v.1.15,2013-03-08 11:00:00,
2013-03-08 03:10:00,44.3,42.4,29.80,NE,45,5.0,5.0,93,0.04,,,0.29,Wunderground v.1.15,2013-03-08 11:10:00,
2013-03-08 03:20:00,44.1,42.2,29.80,NNE,16,2.0,2.0,93,0.04,,,0.30,Wunderground v.1.15,2013-03-08 11:20:00,
2013-03-08 03:25:00,44.0,41.8,29.79,NNE,16,1.0,2.0,92,0.04,,,0.30,Wunderground v.1.15,2013-03-08 11:25:00,
2013-03-08 03:30:00,43.9,41.7,29.80,NNE,16,1.0,2.0,92,0.04,,,0.30,Wunderground v.1.15,2013-03-08 11:30:00,
2013-03-08 03:35:00,43.8,41.6,29.79,NNE,16,1.0,2.0,92,0.00,,,0.31,Wunderground v.1.15,2013-03-08 11:35:00,
2013-03-08 03:40:00,43.8,41.9,29.81,NNE,16,1.0,1.0,93,0.00,,,0.31,Wunderground v.1.15,2013-03-08 11:40:00,
2013-03-08 03:45:00,43.7,41.8,29.80,NNE,16,1.0,2.0,93,0.00,,,0.31,Wunderground v.1.15,2013-03-08 11:45:00,
2013-03-08 03:50:00,43.7,41.8,29.80,NNE,16,0.0,2.0,93,0.00,,,0.31,Wunderground v.1.15,2013-03-08 11:50:00,
2013-03-08 03:55:00,43.6,41.7,29.80,NNE,16,0.0,2.0,93,0.00,,,0.32,Wunderground v.1.15,2013-03-08 11:55:00,
2013-03-08 04:00:00,43.6,41.7,29.81,NNE,16,0.0,2.0,93,0.00,,,0.32,Wunderground v.1.15,2013-03-08 12:00:00,
2013-03-08 04:05:00,43.6,41.7,29.80,NNE,16,0.0,2.0,93,0.00,,,0.32,Wunderground v.1.15,2013-03-08 12:05:00,
2013-03-08 04:10:00,43.6,41.7,29.80,NNE,16,0.0,2.0,93,0.00,,,0.32,Wunderground v.1.15,2013-03-08 12:10:00,
2013-03-08 04:15:00,43.6,41.7,29.80,NNE,16,0.0,2.0,93,0.00,,,0.32,Wunderground v.1.15,2013-03-08 12:15:00,
2013-03-08 04:25:00,43.7,41.8,29.82,NNE,16,0.0,2.0,93,0.00,,,0.32,Wunderground v.1.15,2013-03-08 12:25:00,
2013-03-08 04:30:00,43.8,41.9,29.82,NNE,16,1.0,1.0,93,0.00,,,0.33,Wunderground v.1.15,2013-03-08 12:30:00,
2013-03-08 04:35:00,43.8,41.9,29.83,NNE,16,0.0,2.0,93,0.00,,,0.33,Wunderground v.1.15,2013-03-08 12:35:00,
2013-03-08 04:45:00,43.9,42.3,29.82,NNE,16,0.0,2.0,94,0.00,,,0.33,Wunderground v.1.15,2013-03-08 12:45:00,
2013-03-08 04:50:00,43.9,42.3,29.82,NNE,16,0.0,2.0,94,0.00,,,0.33,Wunderground v.1.15,2013-03-08 12:50:00,
2013-03-08 04:55:00,43.9,42.3,29.82,NNE,16,0.0,2.0,94,0.00,,,0.33,Wunderground v.1.15,2013-03-08 12:55:00,
2013-03-08 05:05:00,43.9,42.3,29.83,NNE,16,1.0,2.0,94,0.00,,,0.33,Wunderground v.1.15,2013-03-08 13:05:00,
2013-03-08 05:10:00,43.9,42.3,29.82,NNE,16,0.0,2.0,94,0.00,,,0.34,Wunderground v.1.15,2013-03-08 13:10:00,
2013-03-08 05:15:00,43.9,42.3,29.82,NNE,16,0.0,2.0,94,0.00,,,0.34,Wunderground v.1.15,2013-03-08 13:15:00,
2013-03-08 05:20:00,43.9,42.3,29.82,NNE,16,0.0,2.0,94,0.00,,,0.34,Wunderground v.1.15,2013-03-08 13:20:00,
2013-03-08 05:30:00,43.9,42.3,29.81,NNE,16,0.0,2.0,94,0.00,,,0.34,Wunderground v.1.15,2013-03-08 13:30:00,
2013-03-08 05:35:00,43.8,42.2,29.81,NNE,16,0.0,2.0,94,0.00,,,0.34,Wunderground v.1.15,2013-03-08 13:35:00,
2013-03-08 05:40:00,43.7,42.1,29.81,NNE,16,0.0,2.0,94,0.00,,,0.34,Wunderground v.1.15,2013-03-08 13:40:00,
2013-03-08 05:50:00,43.6,41.7,29.82,NNE,16,0.0,2.0,93,0.00,,,0.35,Wunderground v.1.15,2013-03-08 13:50:00,
2013-03-08 05:55:00,43.4,41.5,29.83,NNE,16,0.0,2.0,93,0.00,,,0.35,Wunderground v.1.15,2013-03-08 13:55:00,
2013-03-08 06:05:00,43.1,41.2,29.83,NNE,16,0.0,2.0,93,0.00,,,0.35,Wunderground v.1.15,2013-03-08 14:05:00,
2013-03-08 06:10:00,43.0,41.4,29.83,NNE,16,0.0,2.0,94,0.00,,,0.35,Wunderground v.1.15,2013-03-08 14:10:00,
2013-03-08 06:15:00,42.9,41.3,29.83,NNE,16,0.0,2.0,94,0.00,,,0.35,Wunderground v.1.15,2013-03-08 14:15:00,
2013-03-08 06:20:00,42.8,41.2,29.83,NNE,16,0.0,2.0,94,0.00,,,0.35,Wunderground v.1.15,2013-03-08 14:20:00,
2013-03-08 06:25:00,42.8,41.2,29.83,NNE,16,0.0,2.0,94,0.00,,,0.35,Wunderground v.1.15,2013-03-08 14:25:00,
2013-03-08 06:30:00,42.7,41.1,29.83,NNE,16,0.0,2.0,94,0.00,,,0.35,Wunderground v.1.15,2013-03-08 14:30:00,
2013-03-08 06:35:00,42.6,41.0,29.83,NNE,16,0.0,2.0,94,0.00,,,0.35,Wunderground v.1.15,2013-03-08 14:35:00,
2013-03-08 06:40:00,42.6,41.0,29.83,NNE,16,0.0,2.0,94,0.00,,,0.35,Wunderground v.1.15,2013-03-08 14:40:00,
2013-03-08 06:45:00,42.7,41.1,29.84,NNE,16,0.0,2.0,94,0.00,,,0.35,Wunderground v.1.15,2013-03-08 14:45:00,
2013-03-08 06:50:00,42.7,41.1,29.84,NNE,16,0.0,2.0,94,0.00,,,0.35,Wunderground v.1.15,2013-03-08 14:50:00,
2013-03-08 06:55:00,42.9,41.3,29.84,NNE,16,0.0,2.0,94,0.00,,,0.35,Wunderground v.1.15,2013-03-08 14:55:00,
2013-03-08 07:00:00,43.1,41.8,29.84,NNE,16,0.0,2.0,95,0.00,,,0.35,Wunderground v.1.15,2013-03-08 15:00:00,
2013-03-08 07:10:00,43.5,42.2,29.86,NNE,16,0.0,2.0,95,0.00,,,0.35,Wunderground v.1.15,2013-03-08 15:10:00,
2013-03-08 07:15:00,43.6,42.3,29.86,NNE,16,0.0,2.0,95,0.00,,,0.35,Wunderground v.1.15,2013-03-08 15:15:00,
2013-03-08 07:25:00,44.0,42.7,29.86,NNE,16,0.0,2.0,95,0.00,,,0.35,Wunderground v.1.15,2013-03-08 15:25:00,
2013-03-08 07:30:00,44.3,43.0,29.87,NNE,16,0.0,2.0,95,0.00,,,0.35,Wunderground v.1.15,2013-03-08 15:30:00,
2013-03-08 07:35:00,44.6,43.3,29.87,NNE,16,0.0,2.0,95,0.00,,,0.35,Wunderground v.1.15,2013-03-08 15:35:00,
2013-03-08 07:40:00,44.9,43.6,29.87,NNE,16,0.0,2.0,95,0.00,,,0.35,Wunderground v.1.15,2013-03-08 15:40:00,
2013-03-08 07:45:00,45.2,43.9,29.87,NNE,16,1.0,2.0,95,0.00,,,0.36,Wunderground v.1.15,2013-03-08 15:45:00,
2013-03-08 07:50:00,45.5,44.2,29.87,NNE,16,1.0,1.0,95,0.00,,,0.36,Wunderground v.1.15,2013-03-08 15:50:00,
2013-03-08 07:55:00,45.7,44.4,29.88,NNE,16,0.0,2.0,95,0.00,,,0.36,Wunderground v.1.15,2013-03-08 15:55:00,
2013-03-08 08:00:00,45.9,44.5,29.88,NNE,16,0.0,2.0,95,0.00,,,0.36,Wunderground v.1.15,2013-03-08 16:00:00,
2013-03-08 08:05:00,46.1,44.7,29.88,NNE,16,0.0,2.0,95,0.00,,,0.36,Wunderground v.1.15,2013-03-08 16:05:00,
2013-03-08 08:10:00,46.2,44.8,29.88,NNE,16,0.0,2.0,95,0.00,,,0.36,Wunderground v.1.15,2013-03-08 16:10:00,
2013-03-08 08:15:00,46.4,45.0,29.88,NNE,16,0.0,2.0,95,0.00,,,0.36,Wunderground v.1.15,2013-03-08 16:15:00,
2013-03-08 08:20:00,46.4,45.0,29.88,NNE,16,0.0,2.0,95,0.00,,,0.36,Wunderground v.1.15,2013-03-08 16:20:00,
2013-03-08 08:25:00,46.5,44.9,29.89,NNE,16,0.0,2.0,94,0.00,,,0.36,Wunderground v.1.15,2013-03-08 16:25:00,
2013-03-08 08:30:00,46.7,45.3,29.88,NNE,16,0.0,2.0,95,0.00,,,0.36,Wunderground v.1.15,2013-03-08 16:30:00,
2013-03-08 08:35:00,46.7,45.1,29.89,NNE,16,1.0,2.0,94,0.00,,,0.36,Wunderground v.1.15,2013-03-08 16:35:00,
2013-03-08 08:40:00,46.5,44.9,29.89,NNE,16,1.0,2.0,94,0.00,,,0.36,Wunderground v.1.15,2013-03-08 16:40:00,
2013-03-08 08:45:00,46.4,44.5,29.89,NNE,16,0.0,2.0,93,0.00,,,0.36,Wunderground v.1.15,2013-03-08 16:45:00,
2013-03-08 08:50:00,46.2,44.3,29.89,NNE,16,0.0,2.0,93,0.00,,,0.36,Wunderground v.1.15,2013-03-08 16:50:00,
2013-03-08 09:00:00,46.4,44.8,29.89,West,271,0.0,2.0,94,0.00,,,0.36,Wunderground v.1.15,2013-03-08 17:00:00,
2013-03-08 09:05:00,46.6,45.0,29.89,West,271,0.0,2.0,94,0.00,,,0.36,Wunderground v.1.15,2013-03-08 17:05:00,
2013-03-08 09:10:00,46.9,45.3,29.89,SSE,168,0.0,3.0,94,0.00,,,0.36,Wunderground v.1.15,2013-03-08 17:10:00,
2013-03-08 09:15:00,47.0,45.1,29.89,SW,230,1.0,3.0,93,0.00,,,0.36,Wunderground v.1.15,2013-03-08 17:15:00,
2013-03-08 09:25:00,47.1,44.9,29.90,SW,232,1.0,2.0,92,0.00,,,0.36,Wunderground v.1.15,2013-03-08 17:25:00,
2013-03-08 09:30:00,47.2,45.0,29.90,SW,232,0.0,2.0,92,0.00,,,0.36,Wunderground v.1.15,2013-03-08 17:30:00,
2013-03-08 09:35:00,47.4,45.2,29.90,SW,232,0.0,2.0,92,0.00,,,0.36,Wunderground v.1.15,2013-03-08 17:35:00,
2013-03-08 09:40:00,47.6,45.4,29.90,SW,232,0.0,2.0,92,0.00,,,0.36,Wunderground v.1.15,2013-03-08 17:40:00,
2013-03-08 09:45:00,47.6,45.1,29.90,SW,232,0.0,2.0,91,0.00,,,0.36,Wunderground v.1.15,2013-03-08 17:45:00,
2013-03-08 09:55:00,48.1,45.0,29.90,SW,232,1.0,2.0,89,0.00,,,0.36,Wunderground v.1.15,2013-03-08 17:55:00,
2013-03-08 10:05:00,48.8,44.5,29.90,WSW,249,1.0,2.0,85,0.00,,,0.36,Wunderground v.1.15,2013-03-08 18:05:00,
2013-03-08 10:10:00,49.1,44.2,29.91,SW,234,1.0,3.0,83,0.00,,,0.36,Wunderground v.1.15,2013-03-08 18:10:00,
2013-03-08 10:15:00,49.3,44.0,29.91,WSW,252,1.0,3.0,82,0.00,,,0.36,Wunderground v.1.15,2013-03-08 18:15:00,
2013-03-08 10:20:00,49.5,44.2,29.91,West,272,1.0,1.0,82,0.00,,,0.36,Wunderground v.1.15,2013-03-08 18:20:00,
2013-03-08 10:25:00,50.0,45.4,29.91,SSE,168,1.0,4.0,84,0.00,,,0.36,Wunderground v.1.15,2013-03-08 18:25:00,
2013-03-08 10:30:00,50.4,45.1,29.91,SW,222,1.0,2.0,82,0.00,,,0.36,Wunderground v.1.15,2013-03-08 18:30:00,
2013-03-08 10:35:00,50.6,44.7,29.91,South,191,1.0,3.0,80,0.00,,,0.36,Wunderground v.1.15,2013-03-08 18:35:00,
2013-03-08 10:40:00,50.8,44.9,29.91,WNW,297,1.0,4.0,80,0.00,,,0.36,Wunderground v.1.15,2013-03-08 18:40:00,
2013-03-08 10:45:00,51.1,45.1,29.91,WNW,299,1.0,4.0,80,0.00,,,0.36,Wunderground v.1.15,2013-03-08 18:45:00,
2013-03-08 10:50:00,51.4,44.4,29.91,SSW,197,1.0,2.0,77,0.00,,,0.36,Wunderground v.1.15,2013-03-08 18:50:00,
2013-03-08 10:55:00,51.5,44.5,29.91,SSE,159,1.0,2.0,77,0.00,,,0.36,Wunderground v.1.15,2013-03-08 18:55:00,
2013-03-08 11:00:00,51.7,44.7,29.91,SSE,160,1.0,2.0,77,0.00,,,0.36,Wunderground v.1.15,2013-03-08 19:00:00,
2013-03-08 11:05:00,51.7,44.0,29.91,SSE,168,1.0,3.0,75,0.00,,,0.36,Wunderground v.1.15,2013-03-08 19:05:00,
2013-03-08 11:10:00,51.7,43.7,29.91,SW,214,2.0,2.0,74,0.00,,,0.36,Wunderground v.1.15,2013-03-08 19:10:00,
2013-03-08 11:20:00,52.1,44.1,29.91,WNW,302,2.0,3.0,74,0.00,,,0.36,Wunderground v.1.15,2013-03-08 19:20:00,
2013-03-08 11:25:00,52.6,45.2,29.91,SE,124,2.0,3.0,76,0.00,,,0.36,Wunderground v.1.15,2013-03-08 19:25:00,
2013-03-08 11:30:00,52.9,45.2,29.91,SE,132,1.0,1.0,75,0.00,,,0.36,Wunderground v.1.15,2013-03-08 19:30:00,
2013-03-08 11:35:00,53.2,44.8,29.91,SW,223,1.0,2.0,73,0.00,,,0.36,Wunderground v.1.15,2013-03-08 19:35:00,
2013-03-08 11:40:00,53.2,44.0,29.91,SSE,161,1.0,1.0,71,0.00,,,0.36,Wunderground v.1.15,2013-03-08 19:40:00,
2013-03-08 11:45:00,53.4,44.6,29.91,SSW,194,2.0,5.0,72,0.00,,,0.36,Wunderground v.1.15,2013-03-08 19:45:00,
2013-03-08 11:50:00,53.6,46.2,29.91,West,275,2.0,2.0,76,0.00,,,0.36,Wunderground v.1.15,2013-03-08 19:50:00,
2013-03-08 11:55:00,53.9,44.7,29.91,South,176,1.0,4.0,71,0.00,,,0.36,Wunderground v.1.15,2013-03-08 19:55:00,
2013-03-08 12:00:00,54.5,45.3,29.91,WSW,249,2.0,3.0,71,0.00,,,0.36,Wunderground v.1.15,2013-03-08 20:00:00,
2013-03-08 12:05:00,55.1,45.9,29.91,SW,219,2.0,3.0,71,0.00,,,0.36,Wunderground v.1.15,2013-03-08 20:05:00,
2013-03-08 12:10:00,55.3,46.1,29.91,SSW,194,1.0,2.0,71,0.00,,,0.36,Wunderground v.1.15,2013-03-08 20:10:00,
2013-03-08 12:15:00,55.1,44.7,29.91,SSW,209,1.0,2.0,68,0.00,,,0.36,Wunderground v.1.15,2013-03-08 20:15:00,
2013-03-08 12:20:00,55.2,46.0,29.91,West,261,1.0,2.0,71,0.00,,,0.36,Wunderground v.1.15,2013-03-08 20:20:00,
2013-03-08 12:25:00,55.5,45.5,29.91,SW,220,1.0,2.0,69,0.00,,,0.36,Wunderground v.1.15,2013-03-08 20:25:00,
2013-03-08 12:30:00,56.0,46.7,29.91,South,170,2.0,2.0,71,0.00,,,0.36,Wunderground v.1.15,2013-03-08 20:30:00,
2013-03-08 12:35:00,56.4,45.2,29.91,SSE,168,2.0,3.0,66,0.00,,,0.36,Wunderground v.1.15,2013-03-08 20:35:00,
2013-03-08 12:45:00,56.4,46.0,29.90,NNW,337,2.0,2.0,68,0.00,,,0.36,Wunderground v.1.15,2013-03-08 20:45:00,
2013-03-08 12:50:00,56.3,44.7,29.90,SW,230,2.0,2.0,65,0.00,,,0.36,Wunderground v.1.15,2013-03-08 20:50:00,
2013-03-08 12:55:00,55.9,43.9,29.90,WSW,248,2.0,6.0,64,0.00,,,0.36,Wunderground v.1.15,2013-03-08 20:55:00,
2013-03-08 13:05:00,55.0,44.2,29.90,WSW,257,2.0,2.0,67,0.00,,,0.36,Wunderground v.1.15,2013-03-08 21:05:00,
2013-03-08 13:10:00,54.7,44.0,29.90,SSW,209,1.0,2.0,67,0.00,,,0.36,Wunderground v.1.15,2013-03-08 21:10:00,
2013-03-08 13:15:00,54.7,44.7,29.90,South,170,1.0,3.0,69,0.00,,,0.36,Wunderground v.1.15,2013-03-08 21:15:00,
2013-03-08 13:20:00,54.7,43.6,29.90,South,170,1.0,3.0,66,0.00,,,0.36,Wunderground v.1.15,2013-03-08 21:20:00,
2013-03-08 13:25:00,54.5,43.4,29.90,WSW,237,2.0,3.0,66,0.00,,,0.36,Wunderground v.1.15,2013-03-08 21:25:00,
2013-03-08 13:30:00,54.3,43.6,29.89,WSW,255,3.0,3.0,67,0.00,,,0.36,Wunderground v.1.15,2013-03-08 21:30:00,
2013-03-08 13:35:00,54.5,44.5,29.89,SSW,197,2.0,3.0,69,0.00,,,0.36,Wunderground v.1.15,2013-03-08 21:35:00,
2013-03-08 13:40:00,54.5,44.2,29.89,West,265,1.0,1.0,68,0.00,,,0.36,Wunderground v.1.15,2013-03-08 21:40:00,
2013-03-08 13:45:00,54.7,45.5,29.90,NW,322,1.0,2.0,71,0.00,,,0.36,Wunderground v.1.15,2013-03-08 21:45:00,
2013-03-08 13:55:00,54.8,44.4,29.89,SW,222,3.0,4.0,68,0.00,,,0.36,Wunderground v.1.15,2013-03-08 21:55:00,
2013-03-08 14:00:00,55.0,45.4,29.90,SSE,164,2.0,2.0,70,0.00,,,0.36,Wunderground v.1.15,2013-03-08 22:00:00,
2013-03-08 14:05:00,55.3,45.7,29.90,SSE,164,1.0,3.0,70,0.00,,,0.36,Wunderground v.1.15,2013-03-08 22:05:00,
2013-03-08 14:10:00,55.5,44.3,29.90,South,186,1.0,3.0,66,0.00,,,0.36,Wunderground v.1.15,2013-03-08 22:10:00,
2013-03-08 14:15:00,55.4,45.0,29.89,NNE,32,2.0,3.0,68,0.00,,,0.36,Wunderground v.1.15,2013-03-08 22:15:00,
2013-03-08 14:20:00,55.5,45.5,29.89,ENE,78,1.0,2.0,69,0.00,,,0.36,Wunderground v.1.15,2013-03-08 22:20:00,
2013-03-08 14:30:00,55.3,45.3,29.89,SE,141,3.0,3.0,69,0.00,,,0.36,Wunderground v.1.15,2013-03-08 22:30:00,
2013-03-08 14:35:00,55.9,45.9,29.89,WNW,285,1.0,3.0,69,0.00,,,0.36,Wunderground v.1.15,2013-03-08 22:35:00,
2013-03-08 14:40:00,56.9,48.3,29.89,SW,223,1.0,2.0,73,0.00,,,0.36,Wunderground v.1.15,2013-03-08 22:40:00,
2013-03-08 14:45:00,57.2,46.3,29.89,West,266,3.0,3.0,67,0.00,,,0.36,Wunderground v.1.15,2013-03-08 22:45:00,
2013-03-08 14:50:00,57.1,47.0,29.89,SSE,162,3.0,3.0,69,0.00,,,0.36,Wunderground v.1.15,2013-03-08 22:50:00,
2013-03-08 14:55:00,57.3,45.6,29.89,NNW,333,3.0,4.0,65,0.00,,,0.36,Wunderground v.1.15,2013-03-08 22:55:00,
2013-03-08 15:00:00,57.2,46.7,29.89,SE,144,3.0,3.0,68,0.00,,,0.36,Wunderground v.1.15,2013-03-08 23:00:00,
2013-03-08 15:10:00,57.2,46.7,29.90,WSW,248,3.0,3.0,68,0.00,,,0.36,Wunderground v.1.15,2013-03-08 23:10:00,
2013-03-08 15:15:00,57.1,47.0,29.89,SE,137,3.0,3.0,69,0.00,,,0.36,Wunderground v.1.15,2013-03-08 23:15:00,
2013-03-08 15:20:00,57.3,47.2,29.89,West,266,2.0,2.0,69,0.00,,,0.36,Wunderground v.1.15,2013-03-08 23:20:00,
2013-03-08 15:25:00,57.7,46.8,29.89,SSW,197,2.0,2.0,67,0.00,,,0.36,Wunderground v.1.15,2013-03-08 23:25:00,
2013-03-08 15:30:00,57.9,47.4,29.89,NE,43,2.0,2.0,68,0.00,,,0.36,Wunderground v.1.15,2013-03-08 23:30:00,
2013-03-08 15:35:00,58.0,47.1,29.89,SW,219,2.0,2.0,67,0.00,,,0.36,Wunderground v.1.15,2013-03-08 23:35:00,
2013-03-08 15:40:00,57.6,46.3,29.89,WSW,257,2.0,2.0,66,0.00,,,0.36,Wunderground v.1.15,2013-03-08 23:40:00,
2013-03-08 15:45:00,57.3,46.8,29.89,South,176,2.0,2.0,68,0.00,,,0.36,Wunderground v.1.15,2013-03-08 23:45:00,
2013-03-08 15:55:00,56.4,45.6,29.89,South,191,3.0,3.0,67,0.00,,,0.36,Wunderground v.1.15,2013-03-08 23:55:00,
2013-03-08 16:00:00,55.9,45.9,29.89,SSW,199,3.0,3.0,69,0.00,,,0.36,Wunderground v.1.15,2013-03-09 00:00:00,
2013-03-08 16:05:00,55.7,46.1,29.90,WNW,283,2.0,3.0,70,0.00,,,0.36,Wunderground v.1.15,2013-03-09 00:05:00,
2013-03-08 16:10:00,55.8,45.8,29.89,West,263,2.0,4.0,69,0.00,,,0.36,Wunderground v.1.15,2013-03-09 00:10:00,
2013-03-08 16:15:00,56.2,46.2,29.89,WSW,255,2.0,4.0,69,0.00,,,0.36,Wunderground v.1.15,2013-03-09 00:15:00,
2013-03-08 16:20:00,56.4,46.4,29.89,SSE,161,2.0,2.0,69,0.00,,,0.36,Wunderground v.1.15,2013-03-09 00:20:00,
2013-03-08 16:25:00,56.4,46.7,29.89,SSW,195,2.0,2.0,70,0.00,,,0.36,Wunderground v.1.15,2013-03-09 00:25:00,
2013-03-08 16:30:00,56.4,46.7,29.89,SSW,199,2.0,2.0,70,0.00,,,0.36,Wunderground v.1.15,2013-03-09 00:30:00,
2013-03-08 16:35:00,56.3,46.6,29.89,SE,132,2.0,4.0,70,0.00,,,0.36,Wunderground v.1.15,2013-03-09 00:35:00,
2013-03-08 16:45:00,55.7,46.4,29.90,SSW,206,1.0,2.0,71,0.00,,,0.36,Wunderground v.1.15,2013-03-09 00:45:00,
2013-03-08 16:50:00,55.4,46.2,29.90,SSE,149,1.0,4.0,71,0.00,,,0.36,Wunderground v.1.15,2013-03-09 00:50:00,
2013-03-08 16:55:00,55.2,46.7,29.90,SSW,193,1.0,4.0,73,0.00,,,0.36,Wunderground v.1.15,2013-03-09 00:55:00,
2013-03-08 17:00:00,54.8,46.7,29.90,West,269,1.0,3.0,74,0.00,,,0.36,Wunderground v.1.15,2013-03-09 01:00:00,
2013-03-08 17:05:00,54.3,46.9,29.90,NNW,327,1.0,3.0,76,0.00,,,0.36,Wunderground v.1.15,2013-03-09 01:05:00,
2013-03-08 17:10:00,53.9,46.5,29.91,SSW,210,1.0,3.0,76,0.00,,,0.36,Wunderground v.1.15,2013-03-09 01:10:00,
2013-03-08 17:15:00,53.5,46.1,29.91,SSW,201,1.0,3.0,76,0.00,,,0.36,Wunderground v.1.15,2013-03-09 01:15:00,
2013-03-08 17:20:00,53.2,46.2,29.91,SSW,209,1.0,1.0,77,0.00,,,0.36,Wunderground v.1.15,2013-03-09 01:20:00,
2013-03-08 17:30:00,52.8,46.5,29.91,SSW,208,0.0,2.0,79,0.00,,,0.36,Wunderground v.1.15,2013-03-09 01:30:00,
2013-03-08 17:35:00,52.7,46.4,29.92,SSW,208,0.0,2.0,79,0.00,,,0.36,Wunderground v.1.15,2013-03-09 01:35:00,
2013-03-08 17:40:00,52.6,46.3,29.92,SSW,208,0.0,2.0,79,0.00,,,0.36,Wunderground v.1.15,2013-03-09 01:40:00,
2013-03-08 17:45:00,52.5,46.2,29.92,SSW,208,0.0,2.0,79,0.00,,,0.36,Wunderground v.1.15,2013-03-09 01:45:00,
2013-03-08 17:50:00,52.4,46.4,29.93,SSW,208,0.0,2.0,80,0.00,,,0.36,Wunderground v.1.15,2013-03-09 01:50:00,
2013-03-08 17:55:00,52.3,46.3,29.93,SSW,208,0.0,2.0,80,0.00,,,0.36,Wunderground v.1.15,2013-03-09 01:55:00,
2013-03-08 18:05:00,52.1,46.1,29.94,SSW,208,0.0,2.0,80,0.00,,,0.36,Wunderground v.1.15,2013-03-09 02:05:00,
2013-03-08 18:15:00,51.9,45.6,29.94,SSW,208,0.0,2.0,79,0.00,,,0.36,Wunderground v.1.15,2013-03-09 02:15:00,
2013-03-08 18:20:00,51.8,45.5,29.94,SSW,208,0.0,2.0,79,0.00,,,0.36,Wunderground v.1.15,2013-03-09 02:20:00,
2013-03-08 18:25:00,51.7,45.7,29.95,SSW,208,0.0,2.0,80,0.00,,,0.36,Wunderground v.1.15,2013-03-09 02:25:00,
2013-03-08 18:30:00,51.6,45.6,29.95,SSW,208,0.0,2.0,80,0.00,,,0.36,Wunderground v.1.15,2013-03-09 02:30:00,
2013-03-08 18:35:00,51.4,45.4,29.95,SSW,208,0.0,2.0,80,0.00,,,0.36,Wunderground v.1.15,2013-03-09 02:35:00,
2013-03-08 18:45:00,51.1,45.5,29.96,SSW,208,0.0,2.0,81,0.00,,,0.36,Wunderground v.1.15,2013-03-09 02:45:00,
2013-03-08 18:50:00,51.0,45.4,29.96,SSW,208,0.0,2.0,81,0.00,,,0.36,Wunderground v.1.15,2013-03-09 02:50:00,
2013-03-08 19:00:00,50.9,45.6,29.96,SSW,208,0.0,2.0,82,0.00,,,0.36,Wunderground v.1.15,2013-03-09 03:00:00,
2013-03-08 19:05:00,50.5,45.5,29.96,SSW,208,0.0,2.0,83,0.00,,,0.36,Wunderground v.1.15,2013-03-09 03:05:00,
2013-03-08 19:10:00,50.2,45.6,29.96,SSW,208,0.0,2.0,84,0.00,,,0.36,Wunderground v.1.15,2013-03-09 03:10:00,
2013-03-08 19:15:00,49.9,45.3,29.97,SSW,208,0.0,2.0,84,0.00,,,0.36,Wunderground v.1.15,2013-03-09 03:15:00,
2013-03-08 19:20:00,49.6,45.0,29.97,SSW,208,0.0,2.0,84,0.00,,,0.36,Wunderground v.1.15,2013-03-09 03:20:00,
2013-03-08 19:25:00,49.2,44.6,29.97,SSW,208,0.0,2.0,84,0.00,,,0.36,Wunderground v.1.15,2013-03-09 03:25:00,
2013-03-08 19:30:00,48.9,44.6,29.97,SSW,208,0.0,2.0,85,0.00,,,0.36,Wunderground v.1.15,2013-03-09 03:30:00,
2013-03-08 19:35:00,48.6,44.3,29.98,SSW,208,0.0,2.0,85,0.00,,,0.36,Wunderground v.1.15,2013-03-09 03:35:00,
2013-03-08 19:40:00,48.4,44.1,29.98,SSW,208,0.0,2.0,85,0.00,,,0.36,Wunderground v.1.15,2013-03-09 03:40:00,
2013-03-08 19:50:00,47.9,43.9,29.98,SSW,208,0.0,2.0,86,0.00,,,0.36,Wunderground v.1.15,2013-03-09 03:50:00,
2013-03-08 20:00:00,47.7,44.3,29.98,SSW,208,0.0,2.0,88,0.00,,,0.36,Wunderground v.1.15,2013-03-09 04:00:00,
2013-03-08 20:05:00,47.8,44.7,29.99,SSW,208,0.0,2.0,89,0.00,,,0.36,Wunderground v.1.15,2013-03-09 04:05:00,
2013-03-08 20:10:00,47.8,44.7,29.99,SSW,208,0.0,2.0,89,0.00,,,0.36,Wunderground v.1.15,2013-03-09 04:10:00,
2013-03-08 20:15:00,47.7,44.6,30.00,SSW,208,0.0,2.0,89,0.00,,,0.36,Wunderground v.1.15,2013-03-09 04:15:00,
2013-03-08 20:20:00,47.7,44.6,30.00,SSW,208,0.0,2.0,89,0.00,,,0.36,Wunderground v.1.15,2013-03-09 04:20:00,
2013-03-08 20:25:00,47.6,44.5,30.00,SSW,208,0.0,2.0,89,0.00,,,0.36,Wunderground v.1.15,2013-03-09 04:25:00,
2013-03-08 20:30:00,47.5,44.4,30.00,SSW,208,0.0,2.0,89,0.00,,,0.36,Wunderground v.1.15,2013-03-09 04:30:00,
2013-03-08 20:35:00,47.3,44.2,30.00,SSW,208,0.0,2.0,89,0.00,,,0.36,Wunderground v.1.15,2013-03-09 04:35:00,
2013-03-08 20:40:00,47.1,44.0,30.00,SSW,208,0.0,2.0,89,0.00,,,0.36,Wunderground v.1.15,2013-03-09 04:40:00,
2013-03-08 20:45:00,46.9,43.8,30.00,SSW,208,0.0,2.0,89,0.00,,,0.36,Wunderground v.1.15,2013-03-09 04:45:00,
2013-03-08 20:50:00,46.7,43.6,30.00,SSW,208,0.0,2.0,89,0.00,,,0.36,Wunderground v.1.15,2013-03-09 04:50:00,
2013-03-08 20:55:00,46.5,43.4,30.01,SSW,208,0.0,2.0,89,0.00,,,0.36,Wunderground v.1.15,2013-03-09 04:55:00,
2013-03-08 21:00:00,46.3,43.2,30.01,SSW,208,0.0,2.0,89,0.00,,,0.36,Wunderground v.1.15,2013-03-09 05:00:00,
2013-03-08 21:05:00,46.1,43.0,30.01,SSW,208,0.0,2.0,89,0.00,,,0.36,Wunderground v.1.15,2013-03-09 05:05:00,
2013-03-08 21:15:00,45.9,43.1,30.02,SSW,208,0.0,2.0,90,0.00,,,0.36,Wunderground v.1.15,2013-03-09 05:15:00,
2013-03-08 21:20:00,45.9,43.1,30.02,SSW,208,0.0,2.0,90,0.00,,,0.36,Wunderground v.1.15,2013-03-09 05:20:00,
2013-03-08 21:25:00,46.0,43.5,30.02,SSW,208,0.0,2.0,91,0.00,,,0.36,Wunderground v.1.15,2013-03-09 05:25:00,
2013-03-08 21:35:00,46.0,43.5,30.02,SSW,208,0.0,2.0,91,0.00,,,0.36,Wunderground v.1.15,2013-03-09 05:35:00,
2013-03-08 21:40:00,46.0,43.5,30.03,SSW,208,0.0,2.0,91,0.00,,,0.36,Wunderground v.1.15,2013-03-09 05:40:00,
2013-03-08 21:45:00,46.0,43.5,30.03,SSW,208,0.0,2.0,91,0.00,,,0.36,Wunderground v.1.15,2013-03-09 05:45:00,
2013-03-08 21:55:00,46.1,43.9,30.03,SSW,208,0.0,2.0,92,0.00,,,0.36,Wunderground v.1.15,2013-03-09 05:55:00,
2013-03-08 22:00:00,46.1,43.9,30.03,SSW,208,0.0,2.0,92,0.00,,,0.36,Wunderground v.1.15,2013-03-09 06:00:00,
2013-03-08 22:05:00,46.1,43.9,30.03,SSW,208,0.0,2.0,92,0.00,,,0.36,Wunderground v.1.15,2013-03-09 06:05:00,
2013-03-08 22:10:00,46.1,43.9,30.02,SSW,208,0.0,2.0,92,0.00,,,0.36,Wunderground v.1.15,2013-03-09 06:10:00,
2013-03-08 22:15:00,46.1,43.9,30.02,SSW,208,0.0,2.0,92,0.00,,,0.36,Wunderground v.1.15,2013-03-09 06:15:00,
2013-03-08 22:20:00,46.0,43.8,30.02,SSW,208,0.0,2.0,92,0.00,,,0.36,Wunderground v.1.15,2013-03-09 06:20:00,
2013-03-08 22:25:00,45.9,43.7,30.03,SSW,208,0.0,2.0,92,0.00,,,0.36,Wunderground v.1.15,2013-03-09 06:25:00,
2013-03-08 22:30:00,45.8,43.6,30.03,SSW,208,0.0,2.0,92,0.00,,,0.36,Wunderground v.1.15,2013-03-09 06:30:00,
2013-03-08 22:35:00,45.8,43.6,30.03,SSW,208,0.0,2.0,92,0.00,,,0.36,Wunderground v.1.15,2013-03-09 06:35:00,
2013-03-08 22:45:00,45.7,43.5,30.03,SSW,208,0.0,2.0,92,0.00,,,0.36,Wunderground v.1.15,2013-03-09 06:45:00,
2013-03-08 22:50:00,45.6,43.4,30.03,SSW,208,0.0,2.0,92,0.00,,,0.36,Wunderground v.1.15,2013-03-09 06:50:00,
2013-03-08 22:55:00,45.5,43.3,30.03,SSW,208,0.0,2.0,92,0.00,,,0.36,Wunderground v.1.15,2013-03-09 06:55:00,
2013-03-08 23:00:00,45.2,43.0,30.03,SSW,208,0.0,2.0,92,0.00,,,0.36,Wunderground v.1.15,2013-03-09 07:00:00,
2013-03-08 23:05:00,45.0,42.8,30.02,SSW,208,0.0,2.0,92,0.00,,,0.36,Wunderground v.1.15,2013-03-09 07:05:00,
2013-03-08 23:10:00,44.8,42.6,30.03,SSW,208,0.0,2.0,92,0.00,,,0.36,Wunderground v.1.15,2013-03-09 07:10:00,
2013-03-08 23:20:00,44.5,42.3,30.03,SSW,208,0.0,2.0,92,0.00,,,0.36,Wunderground v.1.15,2013-03-09 07:20:00,
2013-03-08 23:25:00,44.5,42.3,30.03,SSW,208,0.0,2.0,92,0.00,,,0.36,Wunderground v.1.15,2013-03-09 07:25:00,
2013-03-08 23:30:00,44.3,42.1,30.03,SSW,208,0.0,2.0,92,0.00,,,0.36,Wunderground v.1.15,2013-03-09 07:30:00,
2013-03-08 23:35:00,44.0,41.8,30.03,SSW,208,0.0,2.0,92,0.00,,,0.36,Wunderground v.1.15,2013-03-09 07:35:00,
2013-03-08 23:40:00,43.8,41.6,30.03,SSW,208,0.0,2.0,92,0.00,,,0.36,Wunderground v.1.15,2013-03-09 07:40:00,
2013-03-08 23:45:00,43.7,41.5,30.03,SSW,208,0.0,2.0,92,0.00,,,0.36,Wunderground v.1.15,2013-03-09 07:45:00,
2013-03-08 23:50:00,43.4,41.2,30.04,SSW,208,0.0,2.0,92,0.00,,,0.36,Wunderground v.1.15,2013-03-09 07:50:00,
2013-03-08 23:55:00,43.3,41.1,30.04,SSW,208,0.0,2.0,92,0.00,,,0.36,Wunderground v.1.15,2013-03-09 07:55:00,